TimeEDT,TemperatureF,Dew PointF,Humidity,Sea Level PressureIn,VisibilityMPH,Wind Direction,Wind SpeedMPH,Gust SpeedMPH,PrecipitationIn,Events,Conditions,WindDirDegrees,DateUTC
12:53 AM,48.0,45.0,89,29.62,3.0,ESE,8.1,21.9,N/A,,Overcast,110,2013-04-12 04:53:00
1:53 AM,48.9,46.0,90,29.57,4.0,ESE,9.2,18.4,N/A,,Overcast,120,2013-04-12 05:53:00
2:53 AM,51.1,46.9,86,29.55,4.0,Variable,5.8,-,N/A,,Overcast,0,2013-04-12 06:53:00
3:53 AM,52.0,48.0,86,29.53,3.0,SE,8.1,-,N/A,,Overcast,130,2013-04-12 07:53:00
4:05 AM,51.8,48.2,88,29.53,3.0,Variable,6.9,-,N/A,,Overcast,0,2013-04-12 08:05:00
4:25 AM,51.8,48.2,88,29.53,2.5,Variable,5.8,-,0.01,Rain,Light Rain,0,2013-04-12 08:25:00
4:40 AM,53.6,50.0,88,29.53,2.0,Variable,3.5,-,0.02,Rain,Light Rain,0,2013-04-12 08:40:00
4:50 AM,53.6,50.0,88,29.53,2.5,Variable,4.6,-,0.02,Rain,Light Rain,0,2013-04-12 08:50:00
4:53 AM,53.1,50.0,89,29.53,2.5,Variable,5.8,-,0.02,Rain,Light Rain,0,2013-04-12 08:53:00
5:07 AM,53.6,50.0,88,29.52,2.5,Variable,3.5,-,0.00,,Overcast,0,2013-04-12 09:07:00
5:53 AM,54.0,51.1,90,29.51,2.5,Variable,6.9,-,0.00,Rain,Light Rain,0,2013-04-12 09:53:00
6:06 AM,53.6,51.8,94,29.51,2.5,Variable,5.8,-,0.00,Rain,Light Rain,0,2013-04-12 10:06:00
6:12 AM,53.6,51.8,94,29.50,1.8,Variable,5.8,-,0.01,Rain,Rain,0,2013-04-12 10:12:00
6:21 AM,53.6,51.8,94,29.49,1.8,Variable,3.5,-,0.02,Rain,Light Rain,0,2013-04-12 10:21:00
6:24 AM,53.6,51.8,94,29.49,2.0,Variable,5.8,-,0.02,Rain,Light Rain,0,2013-04-12 10:24:00
6:31 AM,53.6,51.8,94,29.48,2.0,Variable,3.5,-,0.02,Rain,Light Rain,0,2013-04-12 10:31:00
6:41 AM,55.4,51.8,88,29.49,2.5,Variable,3.5,-,0.02,Rain,Light Rain,0,2013-04-12 10:41:00
6:46 AM,55.4,53.6,94,29.49,2.0,Variable,3.5,-,0.02,Rain,Light Rain,0,2013-04-12 10:46:00
6:53 AM,55.0,52.0,89,29.49,1.8,Variable,4.6,-,0.03,Rain,Rain,0,2013-04-12 10:53:00
7:15 AM,53.6,53.6,100,29.48,1.5,Variable,4.6,-,0.04,Rain,Light Rain,0,2013-04-12 11:15:00
7:53 AM,55.9,54.0,93,29.48,1.2,Variable,4.6,-,0.12,Rain,Rain,0,2013-04-12 11:53:00
8:53 AM,57.9,55.9,93,29.48,1.0,South,5.8,-,0.13,Rain,Rain,180,2013-04-12 12:53:00
9:10 AM,57.2,55.4,94,29.48,2.5,South,5.8,-,0.01,Rain,Light Rain,180,2013-04-12 13:10:00
9:18 AM,57.2,55.4,94,29.48,3.0,South,8.1,-,0.02,Rain,Light Rain,190,2013-04-12 13:18:00
9:23 AM,57.2,55.4,94,29.48,1.8,South,8.1,-,0.03,Rain,Light Rain,190,2013-04-12 13:23:00
9:40 AM,59.0,55.4,88,29.48,3.0,SSW,12.7,18.4,0.07,Rain,Light Rain,200,2013-04-12 13:40:00
9:53 AM,59.0,55.9,90,29.49,2.5,SW,10.4,23.0,0.08,Rain,Light Rain,220,2013-04-12 13:53:00
10:02 AM,59.0,55.4,88,29.49,7.0,WSW,6.9,17.3,0.00,,Overcast,240,2013-04-12 14:02:00
10:48 AM,57.2,53.6,88,29.52,10.0,WSW,15.0,20.7,0.00,,Overcast,250,2013-04-12 14:48:00
10:53 AM,57.0,53.1,87,29.53,9.0,West,17.3,-,0.00,,Overcast,260,2013-04-12 14:53:00
11:06 AM,53.6,51.8,94,29.54,2.5,West,16.1,-,N/A,,Overcast,260,2013-04-12 15:06:00
11:24 AM,50.0,48.2,94,29.56,4.0,West,11.5,-,N/A,,Overcast,280,2013-04-12 15:24:00
11:53 AM,50.0,46.9,89,29.59,7.0,West,16.1,20.7,N/A,,Overcast,260,2013-04-12 15:53:00
12:06 PM,48.2,46.4,93,29.59,7.0,West,13.8,-,N/A,,Overcast,260,2013-04-12 16:06:00
12:53 PM,46.9,44.1,90,29.63,10.0,WSW,15.0,24.2,N/A,,Overcast,250,2013-04-12 16:53:00
1:15 PM,46.4,42.8,87,29.63,10.0,WSW,20.7,25.3,N/A,,Overcast,250,2013-04-12 17:15:00
1:53 PM,46.9,41.0,80,29.65,10.0,WSW,15.0,24.2,N/A,,Overcast,250,2013-04-12 17:53:00
2:06 PM,48.2,42.8,82,29.65,10.0,WSW,13.8,23.0,N/A,,Overcast,250,2013-04-12 18:06:00
2:33 PM,48.2,41.0,76,29.66,10.0,WSW,12.7,19.6,N/A,,Overcast,250,2013-04-12 18:33:00
2:41 PM,46.4,41.0,81,29.66,10.0,WSW,10.4,-,N/A,,Overcast,250,2013-04-12 18:41:00
2:53 PM,46.9,41.0,80,29.67,10.0,WSW,9.2,-,N/A,,Overcast,250,2013-04-12 18:53:00
3:53 PM,46.9,41.0,80,29.67,10.0,WSW,11.5,-,N/A,,Overcast,250,2013-04-12 19:53:00
4:05 PM,48.2,41.0,76,29.66,10.0,WSW,5.8,-,N/A,,Overcast,240,2013-04-12 20:05:00
4:21 PM,48.2,41.0,76,29.66,10.0,WSW,8.1,-,N/A,,Overcast,250,2013-04-12 20:21:00
4:49 PM,44.6,39.2,81,29.69,10.0,WNW,5.8,-,N/A,,Overcast,300,2013-04-12 20:49:00
4:53 PM,44.1,39.9,85,29.70,10.0,WNW,8.1,-,N/A,,Overcast,300,2013-04-12 20:53:00
5:13 PM,42.8,37.4,81,29.71,6.0,West,10.4,-,N/A,,Overcast,280,2013-04-12 21:13:00
5:40 PM,42.8,37.4,81,29.72,7.0,West,10.4,-,N/A,,Overcast,280,2013-04-12 21:40:00
5:53 PM,41.0,37.0,86,29.74,6.0,West,6.9,-,N/A,,Overcast,270,2013-04-12 21:53:00
6:53 PM,42.1,34.0,73,29.77,6.0,WSW,19.6,26.5,0.00,Rain,Light Rain,250,2013-04-12 22:53:00
7:15 PM,39.2,33.8,81,29.78,10.0,WSW,13.8,34.5,0.00,Rain,Light Rain,240,2013-04-12 23:15:00
7:53 PM,39.9,30.9,70,29.81,10.0,WSW,13.8,19.6,0.00,,Overcast,240,2013-04-12 23:53:00
8:53 PM,39.9,30.9,70,29.81,10.0,Variable,6.9,-,N/A,,Overcast,0,2013-04-13 00:53:00
9:53 PM,39.0,30.9,73,29.82,10.0,SW,6.9,-,N/A,,Overcast,220,2013-04-13 01:53:00
10:53 PM,39.0,32.0,76,29.83,9.0,SW,9.2,-,N/A,,Overcast,220,2013-04-13 02:53:00
11:41 PM,39.2,32.0,75,29.82,10.0,SW,8.1,-,N/A,,Overcast,220,2013-04-13 03:41:00
11:53 PM,39.0,32.0,76,29.83,10.0,SW,6.9,-,N/A,,Overcast,230,2013-04-13 03:53:00